Weather History for White Mountain, AK

Change the Weather History Date:

Saturday, February 9, 2013

  Actual Average (PAKK) Record (PAKK)
Temperature  
Mean Temperature 2 °F -  
Max Temperature 14 °F 13 °F 35 °F (2004)
Min Temperature -9 °F 5 °F -38 °F (1999)
Degree Days  
Heating Degree Days 62    
Moisture  
Dew Point -1 °F    
Average Humidity 85    
Maximum Humidity 92    
Minimum Humidity 74    
Precipitation  
Precipitation 0.00 in - - ()
Sea Level Pressure  
Sea Level Pressure 29.20 in    
Wind  
Wind Speed 20 mph (North)    
Max Wind Speed 24 mph    
Max Gust Speed 29 mph    
Visibility 5 miles    
Events Fog , Snow    
Averages and records for this station are not official NWS values.
T = Trace of Precipitation, MM = Missing Value Source: NWS Daily Summary

Daily Weather History Graph

Daily Weather History Graph

Search for Another Location

Airport:

Trip Planner

Search our weather history database for the weather conditions in past years. The results will help you decide how hot, cold, wet, or windy it might be!

Date:

Astronomy

Feb. 09, 2013 Rise Set
Actual Time 10:10 AM AKST 6:06 PM AKST
Civil Twilight 9:15 AM AKST 7:01 PM AKST
Nautical Twilight 8:17 AM AKST 7:59 PM AKST
Astronomical Twilight 7:21 AM AKST 8:55 PM AKST
Moon 9:20 AM AKST (2/9) 6:21 PM AKST (2/9)
Length of Visible Light 9h 45m
Length of Day
7h 56m
Waning Crescent, 0% of the Moon is Illuminated
Feb 9
Waning Crescent
Feb 9
New
Feb 17
First Quarter
Feb 25
Full
Mar 4
Last Quarter

Hourly Weather History & Observations

Time (AKST) Temp. Windchill Dew Point Humidity Pressure Visibility Wind Dir Wind Speed Gust Speed Precip Events Conditions
12:58 AM -9.9 °F -34.8 °F -16.1 °F 74% 29.65 in 6.0 mi North 19.6 mph - 0.00 in Snow Light Snow
1:58 AM -9.0 °F -33.6 °F -14.1 °F 79% 29.63 in 8.0 mi North 19.6 mph - 0.00 in Snow Light Snow
3:58 AM -7.1 °F -31.0 °F -11.9 °F 79% 29.57 in 9.0 mi North 19.6 mph 25.3 mph 0.00 in Snow Light Snow
4:58 AM -7.1 °F -31.6 °F -11.0 °F 83% 29.55 in 7.0 mi North 20.7 mph - 0.00 in Snow Light Snow
5:58 AM -6.0 °F -30.2 °F -9.9 °F 83% 29.51 in 8.0 mi North 20.7 mph - 0.00 in Snow Light Snow
6:58 AM -5.1 °F -28.4 °F -9.0 °F 83% 29.48 in 5.0 mi North 19.6 mph 27.6 mph 0.00 in Snow Light Snow
7:11 AM -5.8 °F -29.9 °F -9.4 °F 84% 29.43 in 2.5 mi North 20.7 mph - 0.00 in Snow Light Snow
7:37 AM -5.8 °F -29.4 °F -9.4 °F 84% 29.41 in 3.0 mi North 19.6 mph 25.3 mph 0.00 in Snow Light Snow
7:58 AM -4.0 °F -27.0 °F -8.0 °F 83% 29.44 in 3.0 mi North 19.6 mph - 0.00 in Snow Light Snow
8:24 AM -4.0 °F -27.6 °F -7.6 °F 85% 29.39 in 2.5 mi North 20.7 mph - 0.00 in Snow Light Snow
8:39 AM -4.0 °F -27.0 °F -7.6 °F 85% 29.38 in 4.0 mi North 19.6 mph - 0.00 in Snow Light Snow
8:58 AM -2.9 °F -25.6 °F -7.1 °F 82% 29.40 in 2.5 mi North 19.6 mph - 0.00 in Snow Light Snow
9:05 AM -2.2 °F -24.1 °F -7.6 °F 78% 29.36 in 2.5 mi North 18.4 mph - 0.00 in Snow Light Snow
9:19 AM -2.2 °F -25.2 °F -7.6 °F 78% 29.34 in 3.0 mi North 20.7 mph - 0.00 in Snow Light Snow
9:54 AM -2.2 °F -26.7 °F -5.8 °F 85% 29.32 in 2.0 mi North 24.2 mph - 0.00 in Snow Light Snow
9:58 AM -2.0 °F -26.0 °F -6.0 °F 83% 29.35 in 1.5 mi North 23.0 mph - 0.00 in Snow Light Snow
10:06 AM -2.2 °F -25.7 °F -5.8 °F 85% 29.31 in 2.5 mi North 21.9 mph 28.8 mph 0.00 in Snow Light Snow
10:11 AM -2.2 °F -26.2 °F -5.8 °F 85% 29.31 in 3.0 mi North 23.0 mph - 0.00 in Snow Light Snow
10:58 AM -2.0 °F -26.0 °F -5.1 °F 87% 29.31 in 2.0 mi North 23.0 mph - 0.00 in Snow Light Snow
11:03 AM -2.2 °F -25.2 °F -5.8 °F 85% 29.28 in 1.5 mi North 20.7 mph - 0.00 in Snow Light Snow
11:09 AM -2.2 °F -25.2 °F -5.8 °F 85% 29.28 in 1.2 mi North 20.7 mph - 0.00 in Snow Light Snow
11:20 AM -0.4 °F -23.3 °F -5.8 °F 78% 29.27 in 2.5 mi North 21.9 mph 28.8 mph 0.00 in Snow Light Snow
11:24 AM -0.4 °F -22.3 °F -4.0 °F 85% 29.26 in 4.0 mi North 19.6 mph 26.5 mph 0.00 in Snow Light Snow
11:37 AM -0.4 °F -22.8 °F -4.0 °F 85% 29.25 in 4.0 mi North 20.7 mph - 0.00 in Snow Light Snow
11:58 AM -0.0 °F -23.8 °F -4.0 °F 83% 29.27 in 4.0 mi North 24.2 mph 28.8 mph 0.00 in Snow Light Snow
12:21 PM -0.4 °F -23.3 °F -2.2 °F 92% 29.22 in 6.0 mi North 21.9 mph - 0.00 in Snow Light Snow
12:39 PM 1.4 °F -20.5 °F -2.2 °F 85% 29.21 in 1.8 mi North 20.7 mph - 0.00 in Snow Light Snow
12:50 PM 1.4 °F -19.4 °F -2.2 °F 85% 29.21 in 2.0 mi North 18.4 mph - 0.00 in Snow Light Snow
12:56 PM 1.4 °F -20.5 °F -2.2 °F 85% 29.20 in 4.0 mi North 20.7 mph 25.3 mph 0.00 in Snow Light Snow
12:58 PM 1.9 °F -19.2 °F -2.0 °F 83% 29.24 in 5.0 mi North 19.6 mph 25.3 mph 0.00 in Snow Light Snow
1:15 PM 3.2 °F -17.1 °F -0.4 °F 85% 29.19 in 7.0 mi North 18.4 mph - 0.00 in Snow Light Snow
1:27 PM 3.2 °F -17.1 °F 1.4 °F 92% 29.17 in 1.8 mi North 18.4 mph - 0.00 in Snow Light Snow
1:34 PM 3.2 °F -17.6 °F 1.4 °F 92% 29.17 in 0.8 mi North 19.6 mph - 0.00 in Snow Light Snow
1:58 PM 3.9 °F -15.6 °F 1.0 °F 88% 29.19 in 0.8 mi North 17.3 mph - 0.00 in Snow Light Snow
2:07 PM 5.0 °F -15.2 °F 1.4 °F 85% 29.15 in 0.5 mi NNW 19.6 mph - 0.00 in Fog , Snow Light Snow
2:23 PM 6.8 °F -12.4 °F 3.2 °F 85% 29.14 in 0.8 mi North 18.4 mph - 0.00 in Snow Light Snow
2:39 PM 6.8 °F -12.4 °F 3.2 °F 85% 29.13 in 1.0 mi NNW 18.4 mph - 0.00 in Snow Light Snow
2:56 PM 6.8 °F -12.4 °F 3.2 °F 85% 29.12 in 1.2 mi North 18.4 mph - 0.00 in Snow Light Snow
2:58 PM 6.1 °F -13.8 °F 3.9 °F 91% 29.15 in 1.5 mi North 19.6 mph - 0.00 in Snow Light Snow
3:18 PM 6.8 °F -12.9 °F 3.2 °F 85% 29.10 in 2.5 mi North 19.6 mph - 0.00 in Snow Light Snow
3:22 PM 6.8 °F -10.7 °F 3.2 °F 85% 29.10 in 4.0 mi North 15.0 mph - 0.00 in Snow Light Snow
3:58 PM 5.0 °F -14.2 °F 3.0 °F 92% 29.11 in 1.8 mi North 17.3 mph - 0.00 in Snow Light Snow
4:17 PM 6.8 °F -12.4 °F 3.2 °F 85% 29.05 in 1.2 mi North 18.4 mph - 0.00 in Snow Light Snow
4:25 PM 6.8 °F -11.3 °F 3.2 °F 85% 29.05 in 2.5 mi North 16.1 mph - 0.00 in Snow Light Snow
4:29 PM 6.8 °F -10.7 °F 3.2 °F 85% 29.05 in 3.0 mi North 15.0 mph - 0.00 in Snow Light Snow
4:58 PM 8.1 °F -9.0 °F 5.0 °F 87% 29.07 in 8.0 mi NNW 15.0 mph - 0.00 in Snow Light Snow
5:58 PM 9.0 °F -7.3 °F 7.0 °F 92% 29.03 in 10.0 mi North 13.8 mph - 0.00 in   Overcast
6:58 PM 12.9 °F -2.8 °F 10.0 °F 88% 28.99 in 10.0 mi NNW 15.0 mph - N/A   Overcast
7:12 PM 12.2 °F -3.7 °F 10.4 °F 92% 28.95 in 10.0 mi North 15.0 mph - N/A   Overcast
7:58 PM 14.0 °F -2.0 °F 10.0 °F 84% 28.96 in 10.0 mi North 16.1 mph - N/A   Overcast
8:30 PM 12.2 °F -5.8 °F 8.6 °F 85% 28.91 in 10.0 mi NNW 19.6 mph - 0.00 in Snow Light Snow
8:58 PM 12.0 °F -6.5 °F 9.0 °F 88% 28.94 in 7.0 mi North 20.7 mph - 0.00 in Snow Light Snow
9:34 PM 12.2 °F -3.7 °F 8.6 °F 85% 28.90 in 7.0 mi North 15.0 mph - 0.00 in Snow Light Snow
9:58 PM 12.0 °F -4.0 °F 9.0 °F 88% 28.93 in 8.0 mi North 15.0 mph - 0.00 in Snow Light Snow
10:33 PM 12.2 °F -4.8 °F 8.6 °F 85% 28.88 in 9.0 mi North 17.3 mph - 0.00 in   Overcast
10:58 PM 12.9 °F -3.9 °F 10.0 °F 88% 28.91 in 10.0 mi North 17.3 mph - 0.00 in   Overcast
11:07 PM 12.2 °F -4.3 °F 10.4 °F 92% 28.87 in 7.0 mi North 16.1 mph - N/A   Overcast
11:56 PM 12.2 °F -4.8 °F 8.6 °F 85% 28.86 in 10.0 mi North 17.3 mph - 0.00 in   Overcast
11:58 PM 12.9 °F -4.4 °F 9.0 °F 84% 28.90 in 10.0 mi North 18.4 mph - 0.00 in   Overcast